Regional Weather Roundup
Issued by NWS Sioux Falls, SD

Home | Current Version | Previous Version | Graphics & Text | Print | Product List | Glossary Off
Versions: 1 2 3 4 5 6 7 8 9 10 11 12 13 14 15 16 17 18 19 20 21 22 23 24 25 26 27 28 29 30 31 32 33 34 35 36 37 38 39 40 41 42 43 44 45 46 47 48 49 50

000
ASUS43 KFSD 012102
RWRFSD

WEATHER ROUNDUP FOR SE SOUTH DAKOTA/SW MINNESOTA/NW IOWA
NATIONAL WEATHER SERVICE SIOUX FALLS SD
400 PM CDT WED JUL 01 2015

NOTE: "FAIR" INDICATES FEW OR NO CLOUDS BELOW 12,000 FEET WITH NO
SIGNIFICANT WEATHER AND OR OBSTRUCTIONS TO VISIBILITY.


SDZ038>040-050-052>070-012200-
SOUTHEAST SOUTH DAKOTA

CITY           SKY/WX    TMP DP  RH WIND       PRES   REMARKS
BROOKINGS      CLOUDY    72  59  64 E12       29.98R
CHAMBERLAIN    CLOUDY    77  66  68 E3        29.92S
HURON          MOSUNNY   78  65  63 VRB5      29.91S
MADISON        FAIR      73  64  73 SE15      29.95S
MITCHELL       PTSUNNY   78  67  68 SE6       29.92R
SIOUX FALLS    PTSUNNY   74  64  71 SE14      29.94S
WINNER         CLOUDY    83  65  54 N9        29.91R
YANKTON        CLOUDY    75  66  73 E10       29.90S
$$

MNZ071-072-080-081-089-090-097-098-012200-
SOUTHWEST MINNESOTA

CITY           SKY/WX    TMP DP  RH WIND       PRES   REMARKS
FAIRMONT       CLOUDY    64  52  63 E8        29.99S
JACKSON        CLOUDY    72  55  56 E14       29.99R
LUVERNE        MOSUNNY   75  59  57 SE10      29.96S
MARSHALL       SUNNY     73  50  43 SE10G21   29.97R
MONTEVIDEO     MOSUNNY   70  54  56 S10       30.00R
PIPESTONE      PTSUNNY   73  55  53 SE10      29.97S
REDWOOD FALLS  PTSUNNY   70  55  59 E8        29.99S
TRACY          MOSUNNY   73  54  51 E10       29.99R
WINDOM         SUNNY     70  55  60 E13       29.99S
WORTHINGTON    CLOUDY    73  52  46 E12       29.97S
$$

IAZ001>003-012>014-020>022-031-032-NEZ013-014-SDZ071-012200-
NORTHWEST IOWA

CITY           SKY/WX    TMP DP  RH WIND       PRES   REMARKS
DENISON        PTSUNNY   72  66  83 E9        29.90S
ESTHERVILLE    CLOUDY    71  54  54 SE10      29.98S
SIOUX CITY     PTSUNNY   76  66  71 E13       29.90S
SPENCER        PTSUNNY   74  51  44 SE13G20   29.96F
$$

ABBREVIATIONS USED IN REMARKS
   TC - TEMPERATURE IN CELSIUS
  WCI - WIND CHILL INDEX
   HX - HEAT INDEX
  VSB - VISIBILITY




USA.gov is the U.S. government's official web portal to all federal, state and local government web resources and services.